Airport Information

KYKM - Yakima Air Terminal McAllister Field Airport

KYKM 240753Z AUTO VRB03KT 10SM CLR 23/13 A2986 RMK AO2 SLP102 T02280133 403280161 $


  • General Information

  • Coordinates: N 46°34'5"/ W 120°32'38"
  • Location: N/A
  • Surveyed Elevation: 1095 MSL

Operations

Flow Name Active Runways Conditions

Green background denotes normal operations.


Common Frequencies

Callsign Frequency Position Name

More at the Document Center


Charts

Under Construction